User: anonymous   Login
Location: Arbon
(43.0005°N, 0.7472°E)
Time: 15:57:46
(UTC+00:00)
Language:

SL-19 R/B - Orbit

View from above orbital plane
View from above orbital plane
View from above satellite
View from above satellite

Ground track
Ground track

The orbit data is extracted from the following two-line orbital elements,

1 28061U 03050B   20295.22254083 -.00000006 +00000-0 +26571-4 0  9991
2 28061 099.4139 224.2252 0146738 026.8888 333.9783 13.97437772865872
Epoch (UTC): 21 October 2020 05:20:27
Eccentricity: 0.0146738
inclination: 99.4139°
perigee height: 796 km
apogee height: 1009 km
right ascension of ascending node: 224.2252°
argument of perigee: 26.8888°
revolutions per day: 13.97437772
mean anomaly at epoch: 333.9783°
orbit number at epoch: 86587

The dashed part of the orbit path shows where the satellite is in the earth's shadow,  

DLR